User: anonymous   Login
Location: Albany
(35.0000°S, 118.0000°E)
Time: 03:37:03
(UTC-04:00)
Language:

SJ-6B - Orbit

View from above orbital plane
View from above orbital plane
View from above satellite
View from above satellite

Ground track
Ground track

The orbit data is extracted from the following two-line orbital elements,

1 28415U 04035C   15145.14893306  .00000898  00000-0  66657-4 0  9991
2 28415 097.7954 157.2982 0055335 154.5222 205.8750 15.04534365585123
Epoch (UTC): 25 May 2015 03:34:27
Eccentricity: 0.0055335
inclination: 97.7954°
perigee height: 514 km
apogee height: 591 km
right ascension of ascending node: 157.2982°
argument of perigee: 154.5222°
revolutions per day: 15.04534365
mean anomaly at epoch: 205.8750°
orbit number at epoch: 58512

The dashed part of the orbit path shows where the satellite is in the earth's shadow,  

DLR